Kuchera_Ratio
0.0 0.0 0.0 0.0 0.0 0.0 0.0 0.0 0.0 3.5 0.5 0.0 0.0 0.0 0.0 0.0 0.0 0.0 0.0 0.0 0.0 0.0 0.0 0.0 0.0 0.0 0.0 0.0 0.0 0.0 0.0 0.0 0.0 0.0 0.0 0.0 0.0 0.0
0.0 0.0 0.0 0.0 0.0 0.0 0.0 0.0 0.0 0.0 3.3 0.0 0.0 0.0 0.0 0.0 0.0 0.0 0.0 0.0 0.0 0.0 0.0 0.0 0.0 0.0 0.0 0.0 0.0 0.0 0.0 0.0 0.0 0.0 0.0 0.0 0.0 0.0
0.0 0.0 0.0 0.0 0.0 0.0 0.0 0.0 0.0 0.0 1.7 0.0 0.0 0.0 0.0 0.0 0.0 0.0 0.0 0.0 0.0 0.0 0.0 0.0 0.0 0.0 0.0 0.0 0.0 0.0 0.0 0.0 0.0 0.0 0.0 0.0 0.0 0.0
0.0 0.0 0.0 0.0 0.0 0.0 0.0 0.0 0.0 0.0 0.0 3.3 0.0 0.0 0.0 0.0 0.0 0.0 0.0 0.0 0.0 0.0 0.0 0.0 0.0 0.0 0.0 0.0 0.0 0.0 0.0 0.0 0.0 0.0 0.0 0.0 0.0 0.0
0.0 0.0 0.0 0.0 0.0 0.0 0.0 0.0 0.0 0.0 0.0 2.3 2.4 0.0 0.0 0.0 0.0 0.0 0.0 0.0 0.0 0.0 0.0 0.0 0.0 0.0 0.0 0.0 0.0 0.0 0.0 0.0 0.0 0.0 0.0 0.0 0.0 0.0
0.0 0.0 0.0 0.0 0.0 0.0 0.0 0.0 0.0 0.0 0.0 0.6 1.3 1.9 2.0 0.0 0.0 0.2 1.4 0.0 0.0 0.0 0.0 0.0 0.0 0.0 0.0 0.0 0.0 0.0 0.0 0.0 0.0 0.0 0.0 0.0 0.0 0.0
0.0 0.0 0.0 0.0 0.0 0.0 0.0 0.0 0.2 1.8 3.6 4.8 5.4 5.1 4.0 2.1 2.4 0.8 2.8 1.0 0.7 0.0 0.0 0.0 0.0 0.0 0.0 0.0 0.0 0.0 0.0 0.0 0.0 0.0 0.0 0.0 0.0 0.0
0.0 0.0 0.0 0.0 0.0 0.0 0.0 0.0 0.4 4.2 7.8 7.0 7.4 6.7 4.4 2.5 1.9 3.5 6.9 9.0 11.2 0.0 1.3 3.4 0.0 0.2 0.0 0.0 0.0 0.0 0.0 0.0 0.0 0.0 0.0 0.0 0.0 0.0
0.0 0.0 0.0 0.0 0.0 0.0 0.0 0.0 0.0 0.0 0.0 1.7 5.0 4.4 5.1 3.3 6.2 9.2 7.8 8.8 8.9 2.8 3.8 7.8 0.6 1.8 0.0 0.0 0.0 0.0 0.0 0.0 0.0 0.0 0.0 0.0 0.0 0.0
0.0 0.0 0.0 0.0 0.0 0.0 0.5 3.0 3.2 0.4 0.0 0.0 1.4 1.9 2.4 3.0 3.3 4.0 6.3 7.8 5.6 2.6 2.1 12.1 3.0 4.6 0.0 0.0 0.0 0.0 0.0 0.0 0.0 0.0 0.0 0.0 0.0 0.0
0.0 0.0 0.0 0.0 0.0 0.0 2.0 6.9 2.4 1.0 0.0 0.0 0.3 0.6 0.3 0.5 2.0 5.6 10.4 12.1 12.7 9.0 4.0 7.6 6.2 7.1 5.7 4.5 0.0 0.0 0.0 0.0 0.0 0.0 0.0 0.0 0.0 0.0
0.0 0.0 0.0 0.0 0.0 0.2 2.7 3.3 6.0 4.0 4.8 5.9 2.0 1.1 1.4 1.9 2.2 4.3 8.1 13.3 13.2 13.8 5.7 10.7 10.6 10.5 13.1 3.7 1.1 0.7 0.0 0.0 0.0 0.0 0.0 0.0 0.0 2.0
0.8 0.4 0.0 0.0 0.3 0.6 1.8 3.8 5.5 4.0 5.4 4.3 4.7 4.5 3.9 4.2 4.0 4.6 7.1 12.0 13.7 13.8 7.5 10.0 12.7 12.4 13.1 12.2 6.3 3.4 1.4 0.0 0.0 0.0 0.0 0.0 0.0 0.4
2.7 1.1 0.2 1.2 2.1 3.1 3.9 4.7 4.5 4.5 5.7 7.6 9.0 9.4 9.1 9.3 8.6 8.5 9.1 10.2 10.2 12.7 10.5 11.9 13.7 13.2 13.4 13.1 12.4 4.7 3.5 2.1 1.6 2.7 1.1 0.0 0.0 0.0
2.5 1.6 1.7 2.9 4.4 5.5 5.7 6.3 6.7 6.9 8.8 12.0 12.5 11.9 10.4 9.9 11.1 11.4 10.0 9.4 10.6 10.0 9.5 9.8 11.8 11.9 12.2 13.1 12.3 8.7 7.3 4.9 2.8 4.3 5.0 5.3 5.3 4.5
2.4 2.4 3.3 4.8 5.8 6.2 6.7 6.2 6.4 7.5 10.2 12.2 12.5 11.2 10.4 11.5 12.2 10.7 12.9 12.8 13.1 12.0 8.0 7.5 8.6 10.0 11.2 8.4 8.9 10.0 6.5 9.7 4.4 5.2 5.4 5.8 4.6 4.4
4.0 5.4 7.0 8.1 9.6 9.1 8.9 8.6 8.2 8.5 12.1 12.1 12.9 13.0 12.8 12.5 12.6 11.6 12.6 12.8 14.2 13.9 12.8 8.5 6.9 6.5 6.2 8.0 10.2 6.6 5.6 6.2 4.6 6.5 7.0 7.0 5.5 4.4
8.6 10.2 11.1 11.4 12.2 12.2 12.5 12.5 12.0 12.1 12.4 12.9 13.3 13.3 13.9 13.9 13.6 12.5 12.4 13.5 14.3 13.4 13.0 10.5 9.0 9.0 6.2 4.0 0.0 4.7 5.5 6.4 5.4 5.9 6.1 7.9 7.1 3.8
11.8 12.4 13.0 12.9 13.1 13.2 13.3 13.4 13.6 12.7 13.2 13.6 13.8 14.0 13.7 13.5 13.8 13.9 13.3 13.1 13.1 12.5 12.2 9.1 10.0 11.0 12.5 13.1 4.4 0.0 7.3 7.0 6.8 6.1 6.2 7.3 8.2 5.5
12.5 13.2 13.6 13.2 13.4 13.8 13.7 13.8 13.6 13.4 13.7 13.9 13.9 13.7 14.2 14.3 14.3 14.0 13.5 13.9 13.3 12.3 11.8 9.3 8.9 9.2 12.5 12.9 12.5 8.1 3.4 7.0 7.5 8.1 7.7 5.9 4.3 1.9
13.1 13.4 13.0 13.4 13.7 13.7 13.6 13.7 14.0 14.6 14.2 14.3 14.4 14.2 13.9 14.0 14.0 13.6 13.3 12.3 11.5 12.0 12.6 11.9 8.5 3.2 7.0 7.1 8.9 6.3 3.6 1.3 2.5 7.2 7.1 7.9 8.9 7.1
13.3 13.7 13.4 13.5 13.9 14.1 14.2 14.2 14.4 14.4 14.6 14.3 14.1 14.0 13.6 13.4 13.8 13.4 12.5 12.7 12.0 11.7 11.8 8.3 6.7 6.7 8.0 9.3 10.5 9.2 6.2 3.3 0.6 0.0 0.7 4.1 8.8 11.9
13.8 13.7 13.8 13.9 14.0 14.2 14.3 14.5 14.7 14.7 14.5 14.5 14.2 14.0 13.6 13.6 12.5 12.1 11.0 10.3 10.3 10.6 9.6 10.2 7.4 6.3 8.0 7.8 8.7 8.1 7.6 6.7 5.6 4.8 3.4 2.0 2.2 2.3